Location: Jetmore
(38.0845°N, 99.8935°W)
Time: 18:16:41
(UTC+00:00)

Envisat - Pass Details

Date: 21 September 2021
Orbit: 764 x 766 km, 98.2° (Epoch: 18 October)

Event Time Altitude Azimuth Distance (km) Brightness Sun altitude
Rises 11:28:18 0° 17° (NNE) 3,237 6.6 -12.3°
Reaches altitude 10° 11:30:40 10° 22° (NNE) 2,307 5.9 -11.8°
Maximum altitude 11:35:39 55° 100° (E) 920 3.8 -10.8°
Drops below altitude 10° 11:40:36 10° 178° (S) 2,291 5.4 -9.9°
Sets 11:42:56 0° 182° (S) 3,213 6.1 -9.4°
